Lapse_Rate
7.4 7.5 8.1 7.7 7.7 7.1 6.9 7.1 7.5 7.5 7.2 7.7 7.2 7.5 7.8 8.2 8.4 8.2 8.3 8.2 8.1 8.1 7.8 7.7 7.6 7.6 7.6 7.5 7.3 7.1 6.9 6.8
6.9 7.2 7.3 7.4 7.4 7.4 7.2 6.9 7.3 7.6 7.5 7.6 7.8 7.2 7.7 7.9 8.2 8.1 8.2 8.3 8.3 8.0 8.0 7.7 7.7 7.7 7.8 7.7 7.4 7.3 7.3 7.1
6.4 6.6 7.0 7.2 7.4 7.3 7.3 7.1 7.1 7.2 7.5 7.4 7.7 7.6 7.5 7.7 8.1 8.3 8.1 8.3 8.3 7.9 7.9 8.0 7.8 7.9 7.8 7.9 7.9 7.8 7.3 7.5
6.8 6.6 7.0 7.2 7.3 7.2 6.9 6.8 6.8 7.0 7.0 7.7 7.3 7.4 7.0 7.2 7.4 7.7 8.2 8.2 8.3 7.8 7.8 7.9 7.8 7.9 8.0 8.0 8.0 7.9 7.6 7.4
7.3 6.9 7.1 7.3 7.5 7.5 7.0 6.7 6.9 7.1 6.9 6.5 7.2 7.3 7.1 7.4 7.6 7.9 7.9 8.0 7.9 7.7 7.8 7.8 7.7 7.6 7.9 8.0 8.0 7.8 7.6 7.4
7.4 7.3 7.4 7.9 7.6 7.6 7.4 7.0 6.6 7.2 6.6 6.7 6.3 6.7 7.0 7.2 7.4 7.6 7.8 7.9 7.9 7.7 7.6 7.7 7.7 7.4 7.6 7.8 7.7 7.6 7.6 7.4
7.0 7.5 7.6 7.8 8.0 8.0 7.8 7.6 7.1 6.7 7.0 6.8 6.5 6.4 6.3 6.7 7.1 7.3 7.6 7.8 7.9 7.7 7.5 7.5 7.5 7.6 7.4 7.6 7.8 7.7 7.5 7.5
7.1 7.3 7.7 7.7 8.4 8.2 8.4 7.9 7.5 7.2 6.7 7.1 7.1 6.7 6.7 6.4 6.8 7.2 7.5 7.7 7.8 7.8 7.6 7.6 7.7 7.6 7.6 7.5 7.7 7.8 7.6 7.5
7.3 7.4 7.7 7.8 7.9 8.0 7.9 8.3 7.8 7.3 7.3 6.8 7.3 7.3 6.7 6.6 6.7 6.6 7.0 7.4 7.8 8.0 8.1 7.8 7.8 7.5 7.6 7.7 7.4 7.6 7.7 7.5
7.3 7.6 7.8 8.0 7.4 7.9 7.9 7.8 7.7 7.4 7.4 7.3 6.8 7.1 7.3 6.7 6.8 6.7 6.7 7.0 7.5 7.9 8.1 8.2 8.0 7.8 7.5 7.7 7.7 7.5 7.6 7.7
7.1 7.5 7.5 7.9 8.1 7.9 8.2 7.8 7.6 7.5 7.4 7.5 7.4 6.9 7.0 7.4 7.3 6.8 6.7 6.6 6.8 7.5 7.7 8.0 8.4 7.9 7.6 7.4 7.6 7.9 7.4 7.4
7.4 7.1 7.2 7.4 8.0 8.4 8.5 8.5 7.7 7.6 7.2 6.9 7.2 7.3 6.9 6.8 6.8 6.9 6.4 6.5 6.6 7.0 7.5 8.0 8.3 8.2 7.8 7.6 7.5 7.8 7.8 7.6
7.1 7.3 7.5 7.4 7.4 7.7 8.4 8.8 8.4 7.7 7.4 7.0 6.8 7.1 7.0 6.4 6.1 6.0 6.1 6.0 6.5 6.9 7.2 7.9 8.2 8.4 7.9 7.7 7.8 7.7 8.0 7.8
6.8 6.6 6.7 6.8 6.7 6.7 7.1 7.6 8.4 8.4 7.7 7.2 6.7 6.4 6.5 6.3 6.3 6.7 6.1 5.1 6.3 6.4 6.7 7.3 8.2 8.2 8.0 7.7 7.9 7.7 7.7 7.8
6.7 6.5 6.5 6.6 6.1 6.0 6.0 6.6 7.6 8.5 8.0 7.4 6.9 6.6 6.3 6.1 6.4 6.7 6.8 6.2 4.5 6.4 6.4 7.0 7.9 8.3 8.0 7.8 7.8 7.8 7.4 7.4
7.1 7.0 6.9 6.7 6.3 6.0 5.8 5.9 6.2 7.5 7.8 6.7 6.7 6.3 6.0 6.3 6.6 6.6 6.6 6.1 6.8 5.9 6.4 6.8 7.1 7.7 7.8 7.5 7.5 7.7 7.7 7.5
7.0 7.0 7.3 6.9 6.2 5.9 5.7 5.5 5.8 5.9 6.0 5.7 4.9 5.7 5.9 6.5 6.7 7.0 7.2 6.5 5.6 6.3 5.6 6.6 6.5 6.6 7.2 7.6 7.5 7.8 7.6 7.6
7.0 7.2 7.3 7.1 6.6 5.9 5.6 5.1 5.1 5.4 5.4 5.7 5.4 5.9 6.5 6.4 6.8 6.4 5.8 5.6 5.7 6.6 6.5 6.3 6.2 6.0 6.7 7.0 6.9 7.0 7.4 7.5
7.1 7.2 7.3 7.1 6.9 6.6 6.1 5.7 5.3 4.9 5.1 5.3 5.5 5.3 5.7 6.6 6.8 5.9 5.3 4.8 5.8 5.4 5.7 5.4 6.1 5.4 4.3 6.2 6.7 6.6 7.1 7.2
Wind_Speed
9 9 9 8 6 13 18 17 18 18 13 11 8 9 12 19 19 19 22 21 21 18 14 12 14 7 7 5 5 4 4 5
8 7 8 8 5 9 15 18 19 14 11 12 11 12 12 11 14 22 22 26 21 20 15 13 14 9 9 10 6 7 5 4
21 21 20 17 10 2 7 15 15 16 14 13 11 15 15 15 12 18 23 25 24 19 14 11 11 9 9 11 10 4 5 6
20 19 19 17 18 17 12 10 17 18 20 12 7 4 5 7 10 13 17 27 28 25 21 14 11 11 11 12 12 14 8 5
18 20 19 17 17 15 15 15 14 14 14 14 20 15 14 13 15 14 15 24 23 26 23 18 13 11 11 11 10 10 9 7
19 21 18 16 16 15 15 14 12 13 16 17 15 18 16 14 13 17 17 17 20 24 22 17 15 11 12 13 12 10 11 10
18 19 17 15 16 16 15 15 15 11 10 16 19 20 17 14 15 13 12 13 15 20 19 16 17 15 14 13 15 16 14 12
17 20 20 22 20 19 18 18 16 15 10 12 18 20 18 20 19 16 17 13 13 18 20 19 16 18 15 15 15 16 16 13
15 17 17 18 18 18 19 19 18 16 16 13 12 19 15 13 17 15 14 14 16 22 20 19 19 19 16 15 13 13 15 14
12 15 15 17 17 16 17 16 16 17 18 14 14 11 19 18 18 18 15 18 14 18 20 21 20 19 18 17 14 16 15 16
10 12 13 14 16 14 14 17 16 16 18 15 13 15 6 14 19 15 18 17 16 17 18 20 19 19 18 18 16 16 17 13
12 13 9 15 14 16 16 16 17 17 16 17 15 15 8 5 4 9 13 17 17 16 20 21 21 20 19 18 19 18 18 18
9 11 11 13 14 16 16 16 16 17 16 15 16 16 6 6 11 16 13 17 16 19 18 21 22 21 20 20 21 20 20 20
6 6 7 8 9 11 15 15 17 16 17 17 16 14 13 12 15 13 11 17 24 20 19 21 23 23 22 22 22 22 21 21
8 6 5 5 6 6 12 14 15 16 17 16 16 16 15 12 13 13 9 20 21 18 21 22 23 23 23 23 22 21 20 19
12 11 6 5 6 6 10 13 12 14 15 16 15 15 15 14 13 13 11 10 12 21 22 22 23 22 18 21 19 20 21 22
14 12 9 7 6 8 10 11 13 13 14 14 13 14 14 13 12 12 14 13 13 11 19 23 20 17 22 23 24 20 22 21
12 8 8 6 5 4 6 9 10 11 12 15 16 15 15 14 12 12 12 11 10 12 10 11 19 23 18 21 23 20 20 21
11 7 6 6 4 4 5 7 7 10 11 13 14 15 15 14 14 12 10 10 9 12 12 11 10 13 17 15 19 21 20 21
Wind_Direction
312 322 331 329 200 186 184 187 188 181 176 179 180 183 185 185 191 194 191 199 192 191 192 192 187 189 189 170 183 190 174 202
297 305 315 324 84 186 199 195 198 184 185 178 177 192 194 192 193 191 191 196 198 188 194 193 190 195 197 190 178 183 199 157
11 17 9 357 344 292 206 218 218 200 194 194 185 200 194 192 186 189 192 195 198 194 192 197 191 193 194 193 185 156 193 170
1 13 7 5 12 1 343 313 220 206 205 187 198 180 196 197 197 192 198 195 194 197 194 194 189 190 197 194 190 183 188 195
355 5 6 1 1 349 349 345 339 212 206 212 194 195 191 199 198 200 202 196 197 199 197 193 193 194 192 192 193 190 171 189
354 352 1 358 355 348 339 337 327 335 206 205 213 209 204 202 203 201 196 198 198 200 199 194 196 194 196 190 190 188 192 192
356 348 351 5 353 349 342 342 326 319 339 221 216 226 212 200 205 204 198 198 200 202 199 199 201 201 194 193 193 197 198 202
357 354 352 351 357 348 345 350 332 322 314 345 239 220 229 216 203 203 197 199 201 204 201 203 203 205 200 196 198 201 200 204
356 353 354 347 350 349 350 356 351 343 333 323 324 240 220 229 220 210 211 203 202 200 201 203 206 204 201 197 201 205 202 208
357 353 356 344 347 352 353 356 349 340 328 325 322 315 236 221 227 222 214 214 207 207 200 202 203 204 200 198 204 207 205 206
359 0 353 353 349 351 357 360 353 339 329 329 321 308 298 239 231 227 225 221 212 205 205 203 204 204 201 201 208 210 209 211
7 354 347 350 351 355 357 1 354 349 336 331 330 320 276 256 258 292 244 228 217 204 202 201 203 207 206 202 209 209 210 215
356 351 353 355 355 360 359 356 355 351 339 337 338 344 292 273 260 249 295 251 222 223 204 203 204 204 206 205 209 210 211 211
324 327 334 343 335 345 356 352 352 352 347 346 345 343 342 349 308 250 219 283 262 226 218 207 203 206 207 210 211 212 213 214
295 290 301 303 311 324 340 350 353 349 348 348 344 346 338 354 344 332 302 271 275 243 226 218 210 204 211 212 213 216 218 221
308 303 298 306 340 343 344 344 347 346 343 344 343 343 342 345 354 344 344 318 287 255 241 228 220 213 206 210 213 217 217 222
308 311 322 314 329 336 345 354 341 345 335 334 336 345 347 348 349 358 341 344 343 325 252 231 228 221 221 199 205 211 215 221
305 325 322 324 286 322 339 336 338 350 336 331 337 350 344 343 356 2 340 332 336 327 328 317 238 222 215 217 214 212 215 220
301 308 315 332 326 315 317 345 335 343 343 335 336 345 338 344 346 2 352 336 4 335 331 331 355 254 239 211 221 222 222 223